Regional Weather Roundup
Issued by NWS

Home | Current Version | Previous Version | Text Only | Print | Product List | Glossary On
Versions: 1 2 3 4 5 6 7 8 9 10 11 12 13 14 15 16 17 18 19 20 21 22 23 24 25 26 27 28 29 30 31 32 33 34 35 36 37 38 39 40 41 42 43 44 45 46 47 48 49 50
000
ASUS44 KBMX 251410
RWRAL

ALABAMA REGIONAL WEATHER ROUNDUP
NATIONAL WEATHER SERVICE BIRMINGHAM AL
900 AM CDT SUN SEP 25 2016

NOTE: "FAIR" INDICATES FEW OR NO CLOUDS BELOW 12,000 FEET
WITH NO SIGNIFICANT WEATHER AND/OR OBSTRUCTIONS TO VISIBILITY.

THE REMARK "TC" DENOTES TEMPERATURE IN DEGREES CELSIUS.

ALZ001>011-014-016>018-020-251500-
NORTH ALABAMA

CITY           SKY/WX    TMP DP  RH WIND       PRES   REMARKS
MUSCLE SHOALS  SUNNY     76  65  68 CALM      30.09S
HUNTSVILLE     MOSUNNY   78  64  61 SE3       30.08S
DECATUR        SUNNY     78  67  68 SE3       30.09S
HALEYVILLE     FAIR      78  66  66 E5        30.11S
GADSDEN        SUNNY     79  66  64 E6        30.10S
$$

ALZ012-013-022-023-030>036-040>044-251500-
WEST CENTRAL ALABAMA

CITY           SKY/WX    TMP DP  RH WIND       PRES   REMARKS
TUSCALOOSA     SUNNY     79  68  69 CALM      30.05S
$$

ALZ015-024>027-033>036-040>044-251500-
CENTRAL ALABAMA

CITY           SKY/WX    TMP DP  RH WIND       PRES   REMARKS
BIRMINGHAM     MOSUNNY   83  64  52 SE3       30.10S
MONTGOMERY     SUNNY     81  68  64 CALM      30.05F
SHELBY CO ARPT PTSUNNY   81  64  56 E3        30.08S
MAXWELL AFB    SUNNY     79  71  76 VRB3      30.05S
GREENVILLE     NOT AVBL
$$

ALZ019-021-028-029-037-038-045>048-251500-
EAST CENTRAL ALABAMA

CITY           SKY/WX    TMP DP  RH WIND       PRES   REMARKS
ANNISTON       MOSUNNY   79  64  60 E3        30.10R
ALEXANDER CITY MOSUNNY   77  74  88 CALM      30.09S
AUBURN         SUNNY     82  68  62 E3        30.10S
$$

ALZ051>064-251500-
SOUTHWEST ALABAMA

CITY           SKY/WX    TMP DP  RH WIND       PRES   REMARKS
MOBILE         MOSUNNY   82  73  74 NW3       30.06S
BROOKLEY FIELD SUNNY     83  73  72 NW5       30.06S
EVERGREEN      SUNNY     78  70  76 CALM      30.06S
$$

ALZ049-050-065>069-251500-
SOUTHEAST ALABAMA

CITY           SKY/WX    TMP DP  RH WIND       PRES   REMARKS
DOTHAN         SUNNY     81  73  76 E6        30.09S
OZARK          SUNNY     78  72  80 SE6       30.06R
TROY           SUNNY     77  71  82 VRB3      30.07S
EUFAULA        FAIR      83  71  67 CALM      30.05F
$$



USA.gov is the U.S. government's official web portal to all federal, state and local government web resources and services.